Paris, TX

10:25 AM CDT on April 24, 2017 (GMT -0500)
Cox

Weather History for KPRX - March, 2014

Change the Weather History Date:

Friday, March 21, 2014

  Actual Average Record
Temperature  
Mean Temperature 61 °F -  
Max Temperature 78 °F 63 °F 82 °F (1997)
Min Temperature 44 °F 44 °F 33 °F (2016)
Degree Days  
Heating Degree Days 4    
Growing Degree Days 11 (Base 50)    
Moisture  
Dew Point 44 °F    
Average Humidity 54    
Maximum Humidity 77    
Minimum Humidity 42    
Precipitation  
Precipitation 0.00 in - - ()
Sea Level Pressure  
Sea Level Pressure 29.93 in    
Wind  
Wind Speed 11 mph (South)    
Max Wind Speed 21 mph    
Max Gust Speed 29 mph    
Visibility 10 miles    
Events      
Averages and records for this station are not official NWS values.
T = Trace of Precipitation, MM = Missing Value Source: NWS Daily Summary

Daily Weather History Graph

Daily Weather History Graph

Search for Another Location

Airport or City:

Trip Planner

Search our weather history database for the weather conditions in past years. The results will help you decide how hot, cold, wet, or windy it might be!

Date:

Astronomy

Mar. 21, 2014 Rise Set
Actual Time 7:24 AM CDT 7:34 PM CDT
Civil Twilight 6:59 AM CDT 7:59 PM CDT
Nautical Twilight 6:30 AM CDT 8:28 PM CDT
Astronomical Twilight 6:00 AM CDT 8:57 PM CDT
Moon No Moon Rise 10:29 AM CDT (3/21)
Length of Visible Light 12h 59m
Length of Day
12h 10m
Waning Gibbous, 75% of the Moon is Illuminated
Mar 21
Waning Gibbous
Mar 23
Last Quarter
Mar 30
New
Apr 7
First Quarter
Apr 15
Full

Hourly Weather History & Observations

Time (CDT) Temp. Windchill Dew Point Humidity Pressure Visibility Wind Dir Wind Speed Gust Speed Precip Events Conditions
12:15 AM 50.0 °F - 28.4 °F 43% 30.04 in 10.0 mi SE 8.1 mph - N/A   Clear
12:35 AM 46.4 °F 41.9 °F 30.2 °F 53% 30.03 in 10.0 mi SSE 9.2 mph - N/A   Clear
12:55 AM 48.2 °F - 28.4 °F 46% 30.04 in 10.0 mi SSE 6.9 mph - N/A   Clear
1:15 AM 48.2 °F - 30.2 °F 50% 30.03 in 10.0 mi SSE 5.8 mph - N/A   Clear
1:35 AM 46.4 °F 42.4 °F 28.4 °F 50% 30.02 in 10.0 mi ESE 8.1 mph - N/A   Clear
1:55 AM 46.4 °F 42.4 °F 30.2 °F 53% 30.02 in 10.0 mi SE 8.1 mph - N/A   Clear
2:15 AM 46.4 °F 41.9 °F 30.2 °F 53% 30.02 in 10.0 mi SE 9.2 mph - N/A   Clear
2:35 AM 46.4 °F 41.1 °F 30.2 °F 53% 30.01 in 10.0 mi SE 11.5 mph - N/A   Clear
2:55 AM 46.4 °F 41.5 °F 30.2 °F 53% 30.00 in 10.0 mi SE 10.4 mph - N/A   Clear
3:15 AM 44.6 °F 39.2 °F 30.2 °F 57% 29.99 in 10.0 mi SE 10.4 mph - N/A   Clear
3:35 AM 46.4 °F 41.5 °F 30.2 °F 53% 29.98 in 10.0 mi SE 10.4 mph - N/A   Clear
3:55 AM 48.2 °F - 30.2 °F 50% 29.97 in 10.0 mi SSE 11.5 mph - N/A   Clear
4:15 AM 48.2 °F - 32.0 °F 54% 29.96 in 10.0 mi SSE 10.4 mph - N/A   Clear
4:35 AM 48.2 °F - 30.2 °F 50% 29.96 in 10.0 mi SSE 9.2 mph - N/A   Clear
4:55 AM 48.2 °F - 30.2 °F 50% 29.96 in 10.0 mi South 9.2 mph - N/A   Clear
5:15 AM 48.2 °F - 30.2 °F 50% 29.96 in 10.0 mi SSE 6.9 mph - N/A   Clear
5:35 AM 46.4 °F 41.9 °F 30.2 °F 53% 29.96 in 10.0 mi SSE 9.2 mph - N/A   Clear
5:55 AM 46.4 °F 41.9 °F 32.0 °F 57% 29.95 in 10.0 mi SSE 9.2 mph - N/A   Clear
6:15 AM 46.4 °F 41.9 °F 32.0 °F 57% 29.95 in 10.0 mi SSE 9.2 mph - N/A   Clear
6:35 AM 46.4 °F 41.9 °F 32.0 °F 57% 29.95 in 10.0 mi SSE 9.2 mph - N/A   Clear
6:55 AM 46.4 °F 42.4 °F 32.0 °F 57% 29.95 in 10.0 mi SSE 8.1 mph - N/A   Clear
7:15 AM 46.4 °F 42.4 °F 33.8 °F 62% 29.96 in 10.0 mi SSE 8.1 mph - N/A   Clear
7:35 AM 46.4 °F 42.4 °F 33.8 °F 62% 29.96 in 10.0 mi SSE 8.1 mph - N/A   Clear
7:55 AM 46.4 °F 42.4 °F 33.8 °F 62% 29.97 in 10.0 mi SSE 8.1 mph - N/A   Clear
8:15 AM 48.2 °F - 33.8 °F 58% 29.97 in 10.0 mi SSE 6.9 mph - N/A   Clear
8:35 AM 48.2 °F - 35.6 °F 62% 29.97 in 10.0 mi South 5.8 mph - N/A   Clear
8:55 AM 53.6 °F - 37.4 °F 54% 29.97 in 10.0 mi South 8.1 mph - N/A   Clear
9:15 AM 55.4 °F - 41.0 °F 58% 29.97 in 10.0 mi South 11.5 mph - N/A   Clear
9:35 AM 57.2 °F - 42.8 °F 59% 29.97 in 10.0 mi South 11.5 mph - N/A   Clear
9:55 AM 59.0 °F - 44.6 °F 59% 29.97 in 10.0 mi South 11.5 mph - N/A   Clear
10:15 AM 60.8 °F - 46.4 °F 59% 29.97 in 10.0 mi South 11.5 mph - N/A   Clear
10:35 AM 62.6 °F - 48.2 °F 59% 29.96 in 10.0 mi South 15.0 mph 23.0 mph N/A   Clear
10:55 AM 66.2 °F - 48.2 °F 52% 29.96 in 10.0 mi South 12.7 mph - N/A   Clear
11:15 AM 69.8 °F - 50.0 °F 49% 29.95 in 10.0 mi South 19.6 mph - N/A   Clear
11:35 AM 69.8 °F - 48.2 °F 46% 29.95 in 10.0 mi SSW 17.3 mph 24.2 mph N/A   Clear
11:55 AM 69.8 °F - 48.2 °F 46% 29.94 in 10.0 mi SSW 20.7 mph 25.3 mph N/A   Clear
12:15 PM 71.6 °F - 50.0 °F 46% 29.94 in 10.0 mi SSW 18.4 mph 24.2 mph N/A   Clear
12:35 PM 71.6 °F - 50.0 °F 46% 29.93 in 10.0 mi SSW 17.3 mph 21.9 mph N/A   Clear
12:55 PM 73.4 °F - 51.8 °F 47% 29.92 in 10.0 mi South 17.3 mph 26.5 mph N/A   Clear
1:15 PM 73.4 °F - 51.8 °F 47% 29.91 in 10.0 mi SSW 18.4 mph 24.2 mph N/A   Clear
1:35 PM 75.2 °F - 51.8 °F 44% 29.90 in 10.0 mi South 20.7 mph 24.2 mph N/A   Clear
1:55 PM 75.2 °F - 51.8 °F 44% 29.88 in 10.0 mi South 19.6 mph 24.2 mph N/A   Clear
2:15 PM 75.2 °F - 51.8 °F 44% 29.88 in 10.0 mi South 15.0 mph 23.0 mph N/A   Partly Cloudy
2:35 PM 75.2 °F - 53.6 °F 47% 29.87 in 10.0 mi South 16.1 mph 27.6 mph N/A   Scattered Clouds
2:55 PM 77.0 °F - 53.6 °F 44% 29.87 in 10.0 mi SSW 19.6 mph 28.8 mph N/A   Partly Cloudy
3:15 PM 77.0 °F - 53.6 °F 44% 29.85 in 10.0 mi SSW 18.4 mph 24.2 mph N/A   Clear
3:35 PM 78.8 °F - 53.6 °F 42% 29.85 in 10.0 mi South 20.7 mph 24.2 mph N/A   Clear
3:55 PM 78.8 °F - 53.6 °F 42% 29.83 in 10.0 mi SSW 18.4 mph 26.5 mph N/A   Clear
4:15 PM 78.8 °F - 53.6 °F 42% 29.83 in 10.0 mi SSW 19.6 mph 26.5 mph N/A   Clear
4:35 PM 75.2 °F - 53.6 °F 47% 29.83 in 10.0 mi South 15.0 mph 21.9 mph N/A   Partly Cloudy
4:55 PM 75.2 °F - 53.6 °F 47% 29.83 in 10.0 mi SW 13.8 mph 19.6 mph N/A   Scattered Clouds
5:15 PM 75.2 °F - 53.6 °F 47% 29.83 in 10.0 mi SW 15.0 mph 20.7 mph N/A   Partly Cloudy
5:35 PM 73.4 °F - 53.6 °F 50% 29.84 in 10.0 mi SW 12.7 mph - N/A   Clear
5:55 PM 73.4 °F - 53.6 °F 50% 29.84 in 10.0 mi SW 11.5 mph 21.9 mph N/A   Clear
6:15 PM 73.4 °F - 53.6 °F 50% 29.84 in 10.0 mi SSW 13.8 mph - N/A   Mostly Cloudy
6:35 PM 73.4 °F - 53.6 °F 50% 29.84 in 10.0 mi SSW 13.8 mph 20.7 mph N/A   Scattered Clouds
6:55 PM 71.6 °F - 55.4 °F 57% 29.85 in 10.0 mi SSW 13.8 mph - N/A   Clear
7:15 PM 71.6 °F - 55.4 °F 57% 29.86 in 10.0 mi SSW 11.5 mph - N/A   Partly Cloudy
7:35 PM 71.6 °F - 55.4 °F 57% 29.86 in 10.0 mi SSW 10.4 mph - N/A   Partly Cloudy
7:55 PM 69.8 °F - 55.4 °F 60% 29.86 in 10.0 mi SSW 8.1 mph - N/A   Clear
8:15 PM 69.8 °F - 55.4 °F 60% 29.87 in 10.0 mi SW 6.9 mph - N/A   Partly Cloudy
8:35 PM 68.0 °F - 55.4 °F 64% 29.87 in 10.0 mi SSW 6.9 mph - N/A   Partly Cloudy
8:55 PM 66.2 °F - 53.6 °F 64% 29.87 in 10.0 mi South 5.8 mph - N/A   Partly Cloudy
9:15 PM 66.2 °F - 53.6 °F 64% 29.89 in 10.0 mi SSW 3.5 mph - N/A   Scattered Clouds
9:35 PM 66.2 °F - 55.4 °F 68% 29.89 in 10.0 mi South 8.1 mph - N/A   Scattered Clouds
9:55 PM 64.4 °F - 55.4 °F 73% 29.90 in 10.0 mi South 8.1 mph - N/A   Partly Cloudy
10:15 PM 64.4 °F - 53.6 °F 68% 29.91 in 10.0 mi South 5.8 mph - N/A   Clear
10:35 PM 64.4 °F - 53.6 °F 68% 29.91 in 10.0 mi South 5.8 mph - N/A   Clear
10:55 PM 62.6 °F - 53.6 °F 72% 29.91 in 10.0 mi South 8.1 mph - N/A   Clear
11:15 PM 62.6 °F - 53.6 °F 72% 29.91 in 10.0 mi SSW 6.9 mph - N/A   Clear
11:35 PM 62.6 °F - 53.6 °F 72% 29.91 in 10.0 mi SSW 6.9 mph - N/A   Clear
11:55 PM 62.6 °F - 55.4 °F 77% 29.91 in 10.0 mi SSW 6.9 mph - N/A   Scattered Clouds